timestamp,surface_pressure_avg,surface_temp_avg,battery_voltage,lat,long
2017-12-09 00:00:00+00:00,232.4364,5.5,12.65,47.84626,-54.09684
2017-12-09 00:10:00+00:00,233.9298,5.5,12.65,47.84626,-54.09684
2017-12-09 00:20:00+00:00,241.4698,5.5,12.65,47.84626,-54.09684
2017-12-09 00:30:00+00:00,240.9331,5.5,12.65,47.84626,-54.09684
2017-12-09 00:40:00+00:00,245.6097,5.49,12.65,47.84626,-54.09684
2017-12-09 00:50:00+00:00,246.0531,5.49,12.65,47.84626,-54.09684
2017-12-09 01:00:00+00:00,251.8031,5.48,12.65,47.84626,-54.09684
2017-12-09 01:10:00+00:00,256.803,5.48,12.57,47.84626,-54.09684
2017-12-09 01:20:00+00:00,265.0097,5.46,12.65,47.84626,-54.09684
2017-12-09 01:30:00+00:00,268.0464,5.47,12.65,47.84626,-54.09684
2017-12-09 01:40:00+00:00,275.2014,5.46,12.65,47.84626,-54.09684
2017-12-09 01:50:00+00:00,279.6331,5.48,12.65,47.84626,-54.09684
2017-12-09 02:00:00+00:00,288.2147,5.47,12.57,47.84626,-54.09684
2017-12-09 02:10:00+00:00,287.3214,5.47,12.57,47.84626,-54.09684
2017-12-09 02:20:00+00:00,288.7064,5.46,12.65,47.84626,-54.09684
2017-12-09 02:30:00+00:00,297.208,5.47,12.65,47.84626,-54.09684
2017-12-09 02:40:00+00:00,304.418,5.45,12.65,47.84626,-54.09684
2017-12-09 02:50:00+00:00,298.1013,5.47,12.65,47.84626,-54.09684
2017-12-09 03:00:00+00:00,305.2214,5.48,12.57,47.84626,-54.09684
2017-12-09 03:10:00+00:00,317.7313,5.49,12.57,47.84626,-54.09684
2017-12-09 03:20:00+00:00,317.3796,5.47,12.65,47.84626,-54.09684
2017-12-09 03:30:00+00:00,313.248,5.48,12.57,47.84626,-54.09684
2017-12-09 03:40:00+00:00,325.6713,5.49,12.65,47.84626,-54.09684
2017-12-09 03:50:00+00:00,338.0164,5.49,12.65,47.84626,-54.09684
2017-12-09 04:00:00+00:00,328.1896,5.49,12.57,47.84626,-54.09684
2017-12-09 04:10:00+00:00,322.0231,5.5,12.57,47.84626,-54.09684
2017-12-09 04:20:00+00:00,325.2647,5.5,12.57,47.84626,-54.09684
2017-12-09 04:30:00+00:00,325.2847,5.5,12.57,47.84626,-54.09684
2017-12-09 04:40:00+00:00,319.1496,5.5,12.57,47.84626,-54.09684
2017-12-09 04:50:00+00:00,322.2013,5.5,12.57,47.84626,-54.09684
2017-12-09 05:00:00+00:00,328.7263,5.5,12.57,47.84626,-54.09684
2017-12-09 05:10:00+00:00,325.7679,5.5,12.49,47.84626,-54.09684
2017-12-09 05:20:00+00:00,317.9713,5.49,12.57,47.84626,-54.09684
2017-12-09 05:30:00+00:00,319.3546,5.49,12.57,47.84626,-54.09684
2017-12-09 05:40:00+00:00,321.473,5.48,12.57,47.84626,-54.09684
2017-12-09 05:50:00+00:00,313.503,5.48,12.57,47.84626,-54.09684
2017-12-09 06:00:00+00:00,298.7629,5.47,12.49,47.84626,-54.09684
2017-12-09 06:10:00+00:00,293.9163,5.47,12.49,47.84626,-54.09684
2017-12-09 06:20:00+00:00,286.9398,5.48,12.57,47.84626,-54.09684
2017-12-09 06:30:00+00:00,277.4664,5.47,12.57,47.84626,-54.09684
2017-12-09 06:40:00+00:00,267.7464,5.47,12.57,47.84626,-54.09684
2017-12-09 06:50:00+00:00,264.3897,5.47,12.57,47.84626,-54.09684
2017-12-09 07:00:00+00:00,255.9381,5.48,12.49,47.84626,-54.09684
2017-12-09 07:10:00+00:00,242.0031,5.46,12.49,47.84626,-54.09684
2017-12-09 07:20:00+00:00,236.4247,5.45,12.57,47.84626,-54.09684
2017-12-09 07:30:00+00:00,235.7464,5.45,12.57,47.84626,-54.09684
2017-12-09 07:40:00+00:00,224.9814,5.43,12.57,47.84626,-54.09684
2017-12-09 07:50:00+00:00,216.8565,5.42,12.57,47.84626,-54.09684
2017-12-09 08:00:00+00:00,214.7248,5.42,12.49,47.84626,-54.09684
2017-12-09 08:10:00+00:00,207.1548,5.42,12.49,47.84626,-54.09684
2017-12-09 08:20:00+00:00,199.5981,5.4,12.57,47.84626,-54.09684
2017-12-09 08:30:00+00:00,199.9114,5.4,12.57,47.84626,-54.09684
2017-12-09 08:40:00+00:00,196.7415,5.4,12.57,47.84626,-54.09684
2017-12-09 08:50:00+00:00,189.7664,5.4,12.57,47.84626,-54.09684
2017-12-09 09:00:00+00:00,190.4165,5.4,12.49,47.84626,-54.09684
2017-12-09 09:10:00+00:00,192.8731,5.1,12.49,47.84626,-54.09684
2017-12-09 09:20:00+00:00,193.0481,5.0,12.49,47.84626,-54.09684
2017-12-09 09:30:00+00:00,199.3831,5.0,12.49,47.84626,-54.09684
2017-12-09 09:40:00+00:00,204.1181,4.97,12.57,47.84626,-54.09684
2017-12-09 09:50:00+00:00,200.1531,4.7,12.57,47.84626,-54.09684
2017-12-09 10:00:00+00:00,202.6498,4.81,12.49,47.84626,-54.09684
2017-12-09 10:10:00+00:00,209.9848,4.88,12.49,47.84626,-54.09684
2017-12-09 10:20:00+00:00,205.4148,4.8,12.49,47.84626,-54.09684
2017-12-09 10:30:00+00:00,205.9731,4.9,12.49,47.84626,-54.09684
2017-12-09 10:40:00+00:00,219.8847,4.9,12.57,47.84626,-54.09684
2017-12-09 10:50:00+00:00,226.9915,4.98,12.57,47.84626,-54.09684
2017-12-09 11:00:00+00:00,224.7165,4.99,12.49,47.84626,-54.09684
2017-12-09 11:10:00+00:00,226.7431,5.08,12.41,47.84626,-54.09684
2017-12-09 11:20:00+00:00,239.8664,5.2,12.49,47.84626,-54.09684
2017-12-09 11:30:00+00:00,243.9247,5.1,12.49,47.84626,-54.09684
2017-12-09 11:40:00+00:00,239.4898,5.0,12.49,47.84626,-54.09684
2017-12-09 11:50:00+00:00,239.1331,5.0,12.49,47.84626,-54.09684
2017-12-09 12:00:00+00:00,244.8031,5.09,12.49,47.84626,-54.09684
2017-12-09 12:10:00+00:00,240.2647,5.0,12.41,47.84626,-54.09684
2017-12-09 12:20:00+00:00,237.3831,4.9,12.49,47.84626,-54.09684
2017-12-09 12:30:00+00:00,248.6281,5.0,12.49,47.84626,-54.09684
2017-12-09 12:40:00+00:00,263.7898,5.18,12.49,47.84626,-54.09684
2017-12-09 12:50:00+00:00,267.7081,5.2,12.57,47.84626,-54.09684
2017-12-09 13:00:00+00:00,269.3048,5.3,12.49,47.84626,-54.09684
2017-12-09 13:10:00+00:00,274.5947,5.3,12.41,47.84626,-54.09684
2017-12-09 13:20:00+00:00,291.728,5.3,12.49,47.84626,-54.09684
2017-12-09 13:30:00+00:00,299.1981,5.34,12.49,47.84626,-54.09684
2017-12-09 13:40:00+00:00,295.5481,5.38,12.49,47.84626,-54.09684
2017-12-09 13:50:00+00:00,298.993,5.36,12.57,47.84626,-54.09684
2017-12-09 14:00:00+00:00,304.0096,5.36,12.49,47.84626,-54.09684
2017-12-09 14:10:00+00:00,309.553,5.38,12.41,47.84626,-54.09684
2017-12-09 14:20:00+00:00,312.468,5.38,12.49,47.84626,-54.09684
2017-12-09 14:30:00+00:00,315.4997,5.38,12.49,47.84626,-54.09684
2017-12-09 14:40:00+00:00,322.7479,5.36,12.57,47.84626,-54.09684
2017-12-09 14:50:00+00:00,329.9846,5.39,12.57,47.84626,-54.09684
2017-12-09 15:00:00+00:00,333.918,5.4,12.57,47.84626,-54.09684
2017-12-09 15:10:00+00:00,330.9862,5.4,12.57,47.84626,-54.09684
2017-12-09 15:20:00+00:00,331.5779,5.4,12.65,47.84626,-54.09684
2017-12-09 15:30:00+00:00,339.6246,5.4,12.65,47.84626,-54.09684
2017-12-09 15:40:00+00:00,341.803,5.44,12.65,47.84626,-54.09684
2017-12-09 15:50:00+00:00,346.373,5.45,12.65,47.84626,-54.09684
2017-12-09 16:00:00+00:00,349.8329,5.49,12.65,47.84626,-54.09684
2017-12-09 16:10:00+00:00,351.8962,5.49,12.57,47.84626,-54.09684
2017-12-09 16:20:00+00:00,352.3947,5.5,12.65,47.84626,-54.09684
2017-12-09 16:30:00+00:00,351.3996,5.41,12.65,47.84626,-54.09684
2017-12-09 16:40:00+00:00,353.3429,5.4,12.65,47.84626,-54.09684
2017-12-09 16:50:00+00:00,356.7696,5.4,12.65,47.84626,-54.09684
2017-12-09 17:00:00+00:00,351.6146,5.43,12.57,47.84626,-54.09684
2017-12-09 17:10:00+00:00,354.0513,5.4,12.57,47.84626,-54.09684
2017-12-09 17:20:00+00:00,355.888,5.45,12.65,47.84626,-54.09684
2017-12-09 17:30:00+00:00,360.393,5.49,12.65,47.84626,-54.09684
2017-12-09 17:40:00+00:00,354.3063,5.49,12.65,47.84626,-54.09684
2017-12-09 17:50:00+00:00,345.4012,5.49,12.65,47.84626,-54.09684
2017-12-09 18:00:00+00:00,338.5213,5.49,12.57,47.84626,-54.09684
2017-12-09 18:10:00+00:00,333.7063,5.5,12.49,47.84626,-54.09684
2017-12-09 18:20:00+00:00,326.1112,5.5,12.57,47.84626,-54.09684
2017-12-09 18:30:00+00:00,317.9514,5.5,12.57,47.84626,-54.09684
2017-12-09 18:40:00+00:00,303.893,5.5,12.57,47.84626,-54.09684
2017-12-09 18:50:00+00:00,293.148,5.5,12.57,47.84626,-54.09684
2017-12-09 19:00:00+00:00,281.2081,5.5,12.49,47.84626,-54.09684
2017-12-09 19:10:00+00:00,279.6548,5.5,12.49,47.84626,-54.09684
2017-12-09 19:20:00+00:00,273.9997,5.5,12.49,47.84626,-54.09684
2017-12-09 19:30:00+00:00,264.9414,5.4,12.49,47.84626,-54.09684
2017-12-09 19:40:00+00:00,256.1631,5.39,12.49,47.84626,-54.09684
2017-12-09 19:50:00+00:00,253.3731,5.39,12.57,47.84626,-54.09684
2017-12-09 20:00:00+00:00,248.1048,5.3,12.49,47.84626,-54.09684
2017-12-09 20:10:00+00:00,231.4964,5.09,12.41,47.84626,-54.09684
2017-12-09 20:20:00+00:00,222.8531,5.06,12.49,47.84626,-54.09684
2017-12-09 20:30:00+00:00,228.4865,5.22,12.49,47.84626,-54.09684
2017-12-09 20:40:00+00:00,220.0764,5.3,12.49,47.84626,-54.09684
2017-12-09 20:50:00+00:00,203.3882,5.1,12.49,47.84626,-54.09684
2017-12-09 21:00:00+00:00,205.1148,5.07,12.41,47.84626,-54.09684
2017-12-09 21:10:00+00:00,207.8665,5.1,12.41,47.84626,-54.09684
2017-12-09 21:20:00+00:00,198.3398,5.17,12.49,47.84626,-54.09684
2017-12-09 21:30:00+00:00,196.9281,5.2,12.49,47.84626,-54.09684
2017-12-09 21:40:00+00:00,204.6348,5.2,12.49,47.84626,-54.09684
2017-12-09 21:50:00+00:00,196.9214,5.1,12.49,47.84626,-54.09684
2017-12-09 22:00:00+00:00,188.9148,4.99,12.41,47.84626,-54.09684
2017-12-09 22:10:00+00:00,201.0348,5.16,12.41,47.84626,-54.09684
2017-12-09 22:20:00+00:00,207.6548,5.24,12.49,47.84626,-54.09684
2017-12-09 22:30:00+00:00,203.4398,5.2,12.49,47.84626,-54.09684
2017-12-09 22:40:00+00:00,210.1181,5.2,12.49,47.84626,-54.09684
2017-12-09 22:50:00+00:00,215.2382,5.2,12.49,47.84626,-54.09684
2017-12-09 23:00:00+00:00,208.6831,5.18,12.41,47.84626,-54.09684
2017-12-09 23:10:00+00:00,204.7997,5.13,12.41,47.84626,-54.09684
2017-12-09 23:20:00+00:00,213.1998,5.3,12.49,47.84626,-54.09684
2017-12-09 23:30:00+00:00,215.5514,5.2,12.49,47.84626,-54.09684
2017-12-09 23:40:00+00:00,209.1081,5.0,12.49,47.84626,-54.09684
2017-12-09 23:50:00+00:00,217.1948,5.17,12.49,47.84626,-54.09684
